Lid_Strength_Index
5 6 5 5 5 5 4 3 3 3 3 3 2 3 2 2 2 3 4 2 5 7 5 5 4 5 5 5 8 5 6 6 7 11 12 11 10 9 8 8 9 9 10 10 9 10 13 6 7 9 7 5 5 5
4 4 5 5 5 4 4 4 3 3 3 2 1 2 1 2 2 2 5 2 2 5 6 3 2 1 2 3 5 5 6 6 8 10 9 8 9 8 9 12 7 10 8 9 10 10 7 5 6 5 4 5 5 5
4 5 5 5 5 5 4 3 3 3 3 2 2 2 1 2 2 2 3 2 5 6 5 5 5 2 0 1 1 7 5 5 7 5 8 8 10 8 9 9 9 8 7 8 8 8 7 6 5 4 4 4 4 3
4 5 5 4 5 4 4 3 3 3 3 3 2 2 1 2 2 2 2 2 5 4 8 7 1 3 1 1 1 2 3 3 4 5 8 8 8 7 8 8 8 7 7 8 9 7 6 6 5 4 4 3 4 3
4 4 4 4 5 4 3 3 2 2 2 2 2 2 1 1 1 1 1 1 1 4 9 8 4 2 1 2 3 2 3 5 6 8 8 8 6 7 6 6 8 6 8 7 8 6 6 6 4 3 4 4 3 3
4 4 3 3 4 4 3 3 2 2 2 2 2 2 2 1 2 2 5 1 1 1 6 8 3 4 3 2 3 4 4 5 6 7 7 5 5 7 7 9 7 6 5 5 6 4 4 4 3 3 3 3 3 3
3 3 3 3 3 3 3 3 2 2 2 2 2 2 2 1 1 4 5 2 3 1 5 7 7 4 3 3 4 5 4 5 6 6 8 7 6 6 8 10 7 5 5 4 4 4 6 4 5 3 3 2 3 2
3 3 3 3 3 3 4 3 2 2 2 2 2 2 2 2 3 4 1 3 1 3 4 8 6 6 3 6 7 4 6 5 6 6 5 6 6 6 9 7 6 5 4 4 4 3 4 3 3 3 2 3 3 3
3 2 2 2 3 3 3 3 2 2 1 2 2 2 2 3 3 3 2 2 1 3 6 6 8 9 3 5 5 5 5 8 4 7 7 6 7 8 6 6 6 5 5 5 3 3 3 4 4 3 3 3 4 3
2 3 3 2 3 3 3 3 2 2 1 2 2 4 6 2 2 1 2 3 4 4 4 7 4 7 4 5 6 7 5 7 9 7 5 7 7 5 5 4 4 4 3 3 5 5 4 4 4 4 3 3 3 3
2 2 3 3 3 3 3 3 2 1 1 2 5 6 2 1 2 4 6 6 5 7 6 5 5 6 3 7 7 5 7 6 10 8 8 8 8 6 4 4 3 3 3 3 3 3 3 3 3 3 3 2 2 2
2 3 3 3 3 3 3 3 2 2 2 3 3 2 1 3 5 8 9 6 7 8 6 6 5 5 4 3 6 6 8 7 11 5 8 10 6 5 4 4 4 3 3 3 3 3 3 3 2 2 2 2 2 2
2 3 3 3 3 3 4 2 1 1 1 2 4 6 5 6 12 11 11 9 9 6 5 6 6 4 5 4 6 7 10 9 5 9 9 7 6 4 4 4 4 3 3 3 3 2 2 2 2 2 2 2 2 2
2 3 3 3 2 3 3 2 1 1 2 6 8 11 9 11 9 8 8 6 5 5 5 6 5 6 4 7 6 10 7 6 11 11 10 6 5 5 4 4 4 4 3 3 3 3 2 2 2 2 2 1 2 2
2 2 3 2 2 3 3 2 3 2 4 7 7 12 10 6 5 5 4 5 4 4 4 6 5 5 7 8 6 8 10 12 10 9 6 6 4 4 4 4 4 3 3 3 3 3 3 2 2 2 2 1 1 2
2 2 2 2 2 3 2 2 3 3 5 7 8 9 7 7 7 6 5 6 3 4 3 4 6 8 8 7 9 10 11 11 8 6 5 4 5 4 4 3 3 3 3 3 2 2 2 2 2 2 2 2 1 1
2 3 2 2 2 3 2 2 3 6 6 8 9 7 7 7 7 5 5 4 2 4 7 5 9 9 6 9 10 7 9 7 5 5 4 4 4 4 3 3 3 3 3 2 2 2 2 2 2 2 3 2 1 1
2 2 2 2 2 2 3 2 4 6 8 8 9 6 6 5 5 4 3 3 4 5 4 7 6 8 10 11 9 6 5 4 3 4 4 4 3 3 3 3 3 3 2 2 2 2 2 2 3 2 2 1 1 1
3 2 2 2 2 3 6 5 4 8 7 5 6 5 5 6 5 4 3 3 3 3 4 5 7 8 8 5 5 4 4 4 5 4 4 3 3 3 3 3 3 2 2 2 3 3 2 2 2 2 2 1 2 1
2 2 2 2 2 5 8 7 4 7 8 6 6 6 5 5 4 3 3 3 4 5 6 7 6 5 4 4 3 3 3 3 4 4 4 4 3 3 3 3 3 2 3 2 2 4 2 2 2 1 1 1 2 2
3 2 3 2 3 4 5 6 7 7 7 7 6 6 7 6 6 6 5 3 5 6 7 5 4 3 2 2 2 2 3 3 4 4 4 5 3 3 3 3 3 3 3 3 3 3 4 2 2 2 2 2 1 1
2 2 2 2 4 4 5 4 6 5 6 6 6 6 7 7 7 6 3 5 6 5 4 4 3 3 3 3 3 2 2 3 3 3 5 5 4 4 4 3 3 4 3 3 2 2 2 2 2 2 2 2 3 1
1 1 2 3 6 7 6 2 6 6 8 6 5 8 7 7 6 3 6 5 5 3 3 3 3 2 3 2 2 2 2 3 3 3 3 3 3 2 3 3 3 4 4 3 2 2 2 6 4 2 2 2 1 2
1 4 6 6 6 8 6 7 5 6 6 7 8 8 8 6 4 6 7 6 4 3 3 3 3 3 3 3 4 3 3 2 3 3 2 3 3 3 3 2 2 2 2 3 2 3 3 3 5 3 2 2 2 2
9 8 8 10 7 8 9 8 9 9 9 7 8 8 7 5 8 7 7 6 5 4 4 3 3 3 4 3 3 3 2 2 3 4 2 2 3 3 3 3 3 2 1 2 3 3 3 3 3 2 2 3 3 3
11 8 10 9 9 9 9 10 9 9 8 8 8 5 5 7 9 9 7 5 4 4 3 3 4 4 4 3 4 4 3 1 2 3 3 2 2 3 3 4 4 3 1 2 2 3 3 2 2 2 3 3 8 3
11 10 8 7 7 8 9 8 7 8 9 9 8 9 8 10 9 7 4 3 3 3 2 2 2 3 3 3 2 2 2 2 2 2 1 1 1 1 2 3 3 2 1 1 1 2 2 2 2 2 2 2 2 2
10 10 11 9 9 8 9 9 11 10 9 7 7 9 10 9 8 5 4 2 2 2 2 2 2 2 2 2 2 2 2 1 1 1 1 1 1 1 1 0 0 8 1 0 1 1 2 2 1 1 1 2 2 1
10 9 9 9 9 8 8 9 8 6 5 6 8 8 7 5 3 4 3 2 2 3 3 3 2 1 2 2 1 1 1 2 3 4 4 4 3 2 1 1 1 0 0 1 9 5 1 1 1 1 1 1 1 1
8 6 9 8 9 10 7 5 6 4 3 4 4 5 5 4 3 2 2 3 4 4 3 2 2 3 3 3 3 2 1 0 1 2 3 4 3 1 1 1 1 0 0 1 2 4 11 4 6 2 3 2 2 2
6 5 7 8 9 7 6 5 4 4 4 5 4 6 6 5 3 2 2 2 2 2 3 3 3 2 2 3 3 3 3 1 1 1 0 1 1 1 1 0 0 0 0 1 1 1 1 1 2 2 2 2 2 4
6 7 7 8 7 5 4 5 6 6 6 6 6 5 4 5 6 3 2 1 2 3 7 3 3 3 1 1 1 1 8 1 1 1 1 0 0 0 0 0 0 0 0 1 1 1 1 2 2 2 3 3 3 2
6 6 6 7 7 7 6 6 6 7 6 6 6 5 5 5 6 3 2 2 2 2 2 2 1 1 1 1 1 1 4 0 4 12 10 10 9 5 0 -0 0 0 0 1 1 1 1 1 2 2 2 2 2 2